NOAA 16 DEB

Satellite information

Favourite Embed

Satellite Type and Status

DEBRISIN ORBIT

Key statistics

Satellite NOAA 16 DEB at a glance.

Uptime

9215

Days in orbit

Revolutions

≈ 14.3

Per day

Orbit

SSO

Sun Synchronous Orbit

Inclination

98.8

Latest

Satellite identification and parameters

Extended collection of information and parameters for NOAA 16 DEB.

Object identification

Identified? True

Debris? True

Object name: NOAA 16 DEB

International designator: 2000-055N

Object number (NORAD): 41055

Object ID (CCSDS): 41055

Country: UNITED STATES OF AMERICA (US)

Current information (Y/N): Y

RCS size: SMALL

Orbital parameters

Period: 100.387 minutes

Inclination: 98.7855 deg

SMA: 7155.015 km

Apoapsis: 786.779 km

Periapsis: 766.981 km

RAAN: 94.1818 deg

Eccentricy: 0.00138349

Argument of periapsis: 33.7114 deg

Mean anomaly: 326.4948 deg

Mean motion: 14.34455024 rev/day

Mean motion (dot): 0.00005903 rev/day2

B* drag term: 0.0021078789 1/REarth

Two-line elements (TLE)

Creation date: Dec. 14, 2025, 3:07 a.m.

Reference frame: TEME

Reference center: EARTH

Epoch: Dec. 13, 2025, 1:14 p.m. UTC

TLE line 0: 0 NOAA 16 DEB

TLE line 1: 1 41055U 00055N 25347.55160877 .00005903 00000-0 21079-2 0 9993

TLE line 2: 2 41055 98.7855 94.1818 0013835 33.7114 326.4948 14.34455024520958

Live tracking on map

Real-time ground track for satellite NOAA 16 DEB.

In-orbit conjunctions

A list of the most updated potential collisions computed for object NOAA 16 DEB.

Target Orbit TCA Probability of collision Miss distance Type
SL-8 R/B LEO 2025-11-09 23:18:00 0.0001350318 753.0 (m) ROCKET BODY
SL-16 DEB LEO 2024-10-12 00:28:29 0.0001159023 70.0 (m) DEBRIS

Associated space launch

The NOAA K, L and M POES satellites begin the fifth generation of improved environmental monitoring in support of NOAA missions. The instrument payload has significant improvements and additions/deletions. The instrument changes have effected the spacecraft subsystems and data formats.

NOAA 16 DEB was lifted into orbit during the mission ‘Titan II SLV | NOAA 16’, on board a Titan II SLV space rocket.

The launch took place on Sept. 21, 2000, 10:22 a.m. from Space Launch Complex 4W.

For more information about the launch, click the button.

Launch to space Titan II SLV | NOAA 16
Titan II SLV | NOAA 16

Agency: N/A

Status: Launch Successful

Launch date: Sept. 21, 2000, 10:22 a.m. UTC

Rocket: Titan II SLV

Launch pad: Space Launch Complex 4W

Location: Vandenberg SFB, CA, USA

...

Latest news about this satellite

There are no fresh news available about this satellite. Check back as we update our databases every day.


Newsletter sign-up

Weekly statistics, charts and insights to help you stay on top of the space industry.